FW7302 Weather Reports


time (UTC)temp
C
wind
direction
speed
KPH
gust
KPH
rain 1hr
cm
rain 24hr
cm
rain mn
cm
humidity
%
barometer
mb
20260505184443 25 290 9.7 11.3 0.00 0.00 0.00 41 1011.2
20260505183939 25 313 9.7 14.5 0.00 0.00 0.00 42 1011.2
20260505183437 25 292 9.7 11.3 0.00 0.00 0.00 44 1011.2
20260505182933 25 307 16.1 25.7 0.00 0.00 0.00 41 1011.3
20260505182430 25 254 8.0 9.7 0.00 0.00 0.00 40 1011.4
20260505181926 24 260 9.7 14.5 0.00 0.00 0.00 41 1011.3
20260505181424 25 313 11.3 14.5 0.00 0.00 0.00 41 1011.7
20260505180921 25 258 14.5 16.1 0.00 0.00 0.00 41 1011.9
20260505180417 25 285 4.8 6.4 0.00 0.00 0.00 39 1011.8
20260505175914 25 307 11.3 12.9 0.00 0.00 0.00 41 1012.1
20260505175410 25 282 16.1 17.7 0.00 0.00 0.00 40 1012.2
20260505174906 25 313 12.9 16.1 0.00 0.00 0.00 41 1012.1
20260505174404 24 284 12.9 14.5 0.00 0.00 0.00 40 1012.3
20260505173900 25 309 12.9 16.1 0.00 0.00 0.00 41 1012.3
20260505173356 24 300 19.3 22.5 0.00 0.00 0.00 39 1012.3
20260505172854 24 300 16.1 16.1 0.00 0.00 0.00 39 1012.0
20260505172352 25 247 6.4 6.4 0.00 0.00 0.00 41 1012.2
20260505171851 25 286 12.9 14.5 0.00 0.00 0.00 39 1012.1
20260505171348 24 295 8.0 9.7 0.00 0.00 0.00 42 1012.0
20260505170844 25 301 12.9 14.5 0.00 0.00 0.00 37 1011.8
20260505170342 24 331 4.8 6.4 0.00 0.00 0.00 42 1011.9
20260505165837 23 306 8.0 11.3 0.00 0.00 0.00 44 1012.1
20260505165333 24 304 29.0 35.4 0.00 0.00 0.00 39 1012.1
20260505164829 23 275 4.8 9.7 0.00 0.00 0.00 41 1012.0
20260505164325 25 294 6.4 6.4 0.00 0.00 0.00 40 1012.1
20260505163824 24 310 9.7 12.9 0.00 0.00 0.00 42 1012.4
20260505163322 23 288 9.7 12.9 0.00 0.00 0.00 41 1012.4
20260505162820 23 333 14.5 16.1 0.00 0.00 0.00 41 1012.2
20260505162316 23 358 4.8 6.4 0.00 0.00 0.00 49 1012.4
20260505161813 23 280 9.7 12.9 0.00 0.00 0.00 45 1012.5
20260505161310 23 285 14.5 14.5 0.00 0.00 0.00 43 1012.6
20260505160808 23 262 9.7 12.9 0.00 0.00 0.00 50 1013.0
20260505160306 23 254 8.0 11.3 0.00 0.00 0.00 47 1013.0
20260505153244 22 262 6.4 6.4 0.00 0.00 0.00 58 1013.0
20260505152741 22 321 8.0 11.3 0.00 0.00 0.00 59 1013.1
20260505152237 22 314 14.5 16.1 0.00 0.00 0.00 57 1013.1
20260505151732 21 301 14.5 16.1 0.00 0.00 0.00 61 1012.9
20260505151230 21 265 6.4 6.4 0.00 0.00 0.00 63 1012.9
20260505150726 21 302 4.8 6.4 0.00 0.00 0.00 67 1013.0
20260505150223 21 306 9.7 12.9 0.00 0.00 0.00 65 1013.0
20260505140651 18 260 6.4 6.4 0.00 0.00 0.00 78 1012.7
20260505140148 18 275 6.4 6.4 0.00 0.00 0.00 78 1012.8
20260505130112 15 304 9.7 9.7 0.00 0.00 0.00 85 1012.3
20260505124601 15 314 8.0 9.7 0.00 0.00 0.00 86 1012.3
20260505124058 14 288 8.0 9.7 0.00 0.00 0.00 86 1012.5
20260505123554 15 253 6.4 6.4 0.00 0.00 0.00 85 1012.3
20260505123050 14 306 4.8 4.8 0.00 0.00 0.00 86 1012.4
20260505122547 14 286 6.4 6.4 0.00 0.00 0.00 86 1012.6
20260505122044 14 291 6.4 6.4 0.00 0.00 0.00 87 1012.5
20260505121541 13 287 4.8 4.8 0.00 0.00 0.00 87 1012.2
20260505121038 13 315 1.6 1.6 0.00 0.00 0.00 88 1012.0
20260505120534 13 328 4.8 4.8 0.00 0.00 0.00 88 1011.9
20260505120030 13 298 1.6 1.6 0.00 0.00 0.00 89 1011.9
20260505115524 13 299 1.6 1.6 0.00 0.00 0.00 89 1011.9
20260505115022 13 296 1.6 1.6 0.00 0.00 0.00 90 1011.8
20260505114519 12 298 0.0 0.0 0.00 0.00 0.00 91 1011.7
20260505114015 12 300 1.6 1.6 0.00 0.00 0.00 92 1011.8
20260505113512 12 315 3.2 3.2 0.00 0.00 0.00 92 1011.6
20260505113009 12 311 3.2 3.2 0.00 0.00 0.00 92 1011.8
20260505112505 11 311 0.0 0.0 0.00 0.00 0.00 93 1011.8
20260505112003 11 311 0.0 0.0 0.00 0.00 0.00 92 1011.9
20260505111456 11 313 1.6 3.2 0.00 0.00 0.00 92 1011.5
20260505110953 11 314 3.2 3.2 0.00 0.00 0.00 92 1011.8
20260505110449 11 309 3.2 3.2 0.00 0.00 0.00 92 1011.6
20260505101920 12 316 4.8 4.8 0.00 0.00 0.00 91 1011.7
20260505101415 11 310 3.2 3.2 0.00 0.00 0.00 91 1011.6
20260505100911 11 317 4.8 4.8 0.00 0.00 0.00 91 1011.6
20260505100408 11 309 3.2 3.2 0.00 0.00 0.00 91 1011.5
20260505095903 11 313 1.6 1.6 0.00 0.00 0.00 91 1011.5
20260505095401 11 305 0.0 0.0 0.00 0.00 0.00 90 1011.7
20260505094857 11 305 1.6 1.6 0.00 0.00 0.00 90 1011.6
20260505094354 11 310 1.6 1.6 0.00 0.00 0.00 89 1011.6
20260505093850 11 306 1.6 1.6 0.00 0.00 0.00 88 1011.4
20260505093347 12 311 3.2 3.2 0.00 0.00 0.00 88 1011.4
20260505092844 12 309 4.8 4.8 0.00 0.00 0.00 88 1011.5
20260505092343 12 311 4.8 4.8 0.00 0.00 0.00 87 1011.3
20260505091839 12 314 3.2 3.2 0.00 0.00 0.00 87 1011.4
20260505091337 12 318 3.2 4.8 0.00 0.00 0.00 87 1011.2
20260505090835 12 304 4.8 4.8 0.00 0.00 0.00 87 1011.3
20260505090333 12 313 6.4 6.4 0.00 0.00 0.00 86 1011.3
20260505085830 12 310 4.8 4.8 0.00 0.00 0.00 86 1011.3
20260505085328 12 312 6.4 6.4 0.00 0.00 0.00 86 1011.3
20260505084826 12 307 8.0 9.7 0.00 0.00 0.00 85 1011.2
20260505084324 12 293 6.4 6.4 0.00 0.00 0.00 85 1011.2
20260505083820 12 286 6.4 6.4 0.00 0.00 0.00 84 1011.1
20260505083318 12 307 6.4 6.4 0.00 0.00 0.00 84 1011.0
20260505082815 12 291 6.4 9.7 0.00 0.00 0.00 84 1011.1
20260505082311 12 302 8.0 9.7 0.00 0.00 0.00 84 1011.0
20260505081807 12 303 3.2 4.8 0.00 0.00 0.00 84 1011.2
20260505081304 12 310 4.8 4.8 0.00 0.00 0.00 84 1011.2
20260505080801 12 296 4.8 4.8 0.00 0.00 0.00 84 1011.0
20260505080256 12 305 4.8 4.8 0.00 0.00 0.00 84 1011.0
20260505075752 12 322 4.8 4.8 0.00 0.00 0.00 83 1011.1
20260505075250 12 322 3.2 3.2 0.00 0.00 0.00 83 1011.0
20260505074747 12 302 0.0 1.6 0.00 0.00 0.00 82 1011.1
20260505074244 12 303 1.6 1.6 0.00 0.00 0.00 82 1010.9
20260505073742 12 301 1.6 1.6 0.00 0.00 0.00 81 1010.9
20260505073239 12 299 3.2 3.2 0.00 0.00 0.00 81 1011.0
20260505072736 12 302 3.2 3.2 0.00 0.00 0.00 80 1010.8
20260505072232 12 297 3.2 3.2 0.00 0.00 0.00 79 1011.0
20260505071727 12 314 3.2 3.2 0.00 0.00 0.00 79 1011.0
20260505071225 12 290 3.2 4.8 0.00 0.00 0.00 79 1010.9
20260505070722 12 294 3.2 3.2 0.00 0.00 0.00 78 1010.7
20260505070218 12 314 3.2 3.2 0.00 0.00 0.00 78 1010.8
20260505065714 12 298 3.2 3.2 0.00 0.00 0.00 77 1010.7
20260505065211 13 312 1.6 1.6 0.00 0.00 0.00 77 1011.0
20260505064708 13 317 3.2 3.2 0.00 0.00 0.00 76 1010.5
20260505064206 13 306 1.6 1.6 0.00 0.00 0.00 75 1010.8
20260505063704 13 293 4.8 6.4 0.00 0.00 0.00 75 1010.8
20260505063159 13 293 6.4 6.4 0.00 0.00 0.00 74 1010.8
20260505062655 13 301 4.8 4.8 0.00 0.00 0.00 74 1010.7
20260505062154 13 320 4.8 4.8 0.00 0.00 0.00 73 1010.8
20260505061650 13 294 6.4 6.4 0.00 0.00 0.00 73 1010.8
20260505061148 13 301 3.2 3.2 0.00 0.00 0.00 72 1010.9
20260505060645 13 324 3.2 3.2 0.00 0.00 0.00 72 1010.8
20260505060142 13 323 3.2 3.2 0.00 0.00 0.00 71 1010.9
20260505055637 14 296 1.6 1.6 0.00 0.00 0.00 71 1011.0
20260505055134 14 300 1.6 1.6 0.00 0.00 0.00 71 1011.0
20260505054632 14 240 6.4 6.4 0.00 0.00 0.00 68 1011.1
20260505054130 15 268 3.2 4.8 0.00 0.00 0.00 68 1011.3
20260505053627 15 299 1.6 1.6 0.00 0.00 0.00 67 1010.9
20260505053123 15 293 3.2 3.2 0.00 0.00 0.00 66 1011.3
20260505052620 15 286 6.4 6.4 0.00 0.00 0.00 66 1011.1
20260505052118 15 237 3.2 4.8 0.00 0.00 0.00 65 1011.2
20260505051614 15 306 1.6 1.6 0.00 0.00 0.00 65 1011.4
20260505051113 15 280 3.2 3.2 0.00 0.00 0.00 65 1011.1
20260505050610 15 254 3.2 4.8 0.00 0.00 0.00 65 1011.2
20260505050108 15 291 4.8 4.8 0.00 0.00 0.00 63 1010.9
20260505041538 16 311 3.2 3.2 0.00 0.00 0.00 61 1011.1
20260505041035 16 301 1.6 1.6 0.00 0.00 0.00 61 1011.2
20260505040532 16 305 3.2 3.2 0.00 0.00 0.00 61 1011.4
20260505040030 16 295 3.2 4.8 0.00 0.00 0.00 59 1011.4
20260505035525 16 295 4.8 4.8 0.00 0.00 0.00 59 1011.3
20260505035022 16 311 3.2 3.2 0.00 0.00 0.00 59 1011.3
20260505034519 16 311 4.8 4.8 0.00 0.00 0.00 59 1011.2
20260505034016 16 280 4.8 4.8 0.00 0.00 0.00 58 1011.3
20260505033513 16 303 8.0 11.3 0.00 0.00 0.00 58 1011.4
20260505033011 17 303 4.8 4.8 0.00 0.00 0.00 58 1011.4
20260505032508 17 301 4.8 4.8 0.00 0.00 0.00 58 1011.3
20260505032005 17 303 3.2 4.8 0.00 0.00 0.00 57 1011.5
20260505031502 17 301 4.8 4.8 0.00 0.00 0.00 57 1011.5
20260505030958 17 302 3.2 3.2 0.00 0.00 0.00 57 1011.5
20260505030455 17 304 3.2 4.8 0.00 0.00 0.00 57 1011.1
20260505025950 17 303 4.8 4.8 0.00 0.00 0.00 57 1011.4
20260505025447 17 289 6.4 6.4 0.00 0.00 0.00 57 1011.3
20260505024946 17 307 3.2 4.8 0.00 0.00 0.00 57 1011.3
20260505024443 17 305 3.2 4.8 0.00 0.00 0.00 56 1011.1
20260505023940 17 299 3.2 3.2 0.00 0.00 0.00 56 1011.2
20260505023437 17 299 4.8 4.8 0.00 0.00 0.00 57 1011.2
20260505022934 17 298 3.2 3.2 0.00 0.00 0.00 57 1011.1
20260505022432 17 302 3.2 3.2 0.00 0.00 0.00 57 1011.0
20260505021929 17 288 3.2 3.2 0.00 0.00 0.00 57 1011.2
20260505021425 18 292 3.2 3.2 0.00 0.00 0.00 56 1011.1
20260505020921 17 293 4.8 4.8 0.00 0.00 0.00 56 1011.2
20260505020416 18 311 4.8 4.8 0.00 0.00 0.00 57 1011.1
20260505015914 18 282 6.4 6.4 0.00 0.00 0.00 56 1011.0
20260505015411 18 252 3.2 4.8 0.00 0.00 0.00 57 1011.0
20260505014908 18 291 3.2 3.2 0.00 0.00 0.00 55 1010.7
20260505014405 18 301 3.2 3.2 0.00 0.00 0.00 54 1010.8
20260505013902 18 305 1.6 3.2 0.00 0.00 0.00 55 1010.8
20260505013358 18 302 1.6 1.6 0.00 0.00 0.00 55 1010.8
20260505012857 18 296 3.2 3.2 0.00 0.00 0.00 54 1010.6
20260505012355 18 314 1.6 3.2 0.00 0.00 0.00 55 1010.6
20260505011850 18 292 3.2 3.2 0.00 0.00 0.00 54 1010.6
20260505011347 18 304 1.6 1.6 0.00 0.00 0.00 56 1010.7
20260505010843 19 293 3.2 3.2 0.00 0.00 0.00 55 1010.6
20260505010339 19 300 3.2 3.2 0.00 0.00 0.00 55 1010.3
20260505005836 18 301 3.2 3.2 0.00 0.00 0.00 55 1010.4
20260505005333 18 302 1.6 1.6 0.00 0.00 0.00 59 1010.4
20260505004830 18 304 3.2 3.2 0.00 0.00 0.00 56 1010.3
20260505004326 18 305 1.6 1.6 0.00 0.00 0.00 58 1010.4
20260505003824 18 309 0.0 0.0 0.00 0.00 0.00 61 1010.3
20260505003321 18 309 0.0 0.0 0.00 0.00 0.00 61 1010.3
20260505002817 18 309 0.0 0.0 0.00 0.00 0.00 58 1010.2
20260505002314 18 309 0.0 1.6 0.00 0.00 0.00 61 1010.3
20260505001812 18 305 0.0 1.6 0.00 0.00 0.00 62 1010.3
20260505001309 18 306 0.0 0.0 0.00 0.00 0.00 63 1010.2
20260505000806 18 307 0.0 1.6 0.00 0.00 0.00 63 1010.1
20260505000304 18 310 0.0 0.0 0.00 0.00 0.00 60 1010.0
20260504235800 19 309 1.6 1.6 0.00 0.00 0.00 59 1010.2
20260504235256 19 304 0.0 1.6 0.00 0.00 0.00 61 1010.0
20260504234754 20 306 1.6 1.6 0.00 0.00 0.00 58 1010.0
20260504234252 20 308 1.6 1.6 0.00 0.00 0.00 57 1009.5
20260504233748 21 308 0.0 1.6 0.00 0.00 0.00 55 1009.9
20260504233243 21 313 1.6 1.6 0.00 0.00 0.00 48 1010.0
20260504232740 21 314 1.6 3.2 0.00 0.00 0.00 47 1009.9
20260504232237 22 316 1.6 3.2 0.00 0.00 0.00 47 1009.8
20260504231735 22 303 3.2 3.2 0.00 0.00 0.00 45 1009.5
20260504231231 22 314 1.6 3.2 0.00 0.00 0.00 45 1009.5
20260504230727 22 308 3.2 3.2 0.00 0.00 0.00 45 1009.9
20260504230226 22 301 4.8 4.8 0.00 0.00 0.00 43 1009.8
20260504225724 22 295 3.2 4.8 0.00 0.00 0.00 43 1009.9
20260504225220 22 303 4.8 4.8 0.00 0.00 0.00 41 1009.6
20260504224717 23 285 3.2 4.8 0.00 0.00 0.00 42 1009.9
20260504224214 23 296 4.8 4.8 0.00 0.00 0.00 42 1010.1
20260504223710 23 291 6.4 6.4 0.00 0.00 0.00 42 1010.2
20260504223206 23 282 6.4 6.4 0.00 0.00 0.00 40 1010.1
20260504222703 23 301 11.3 12.9 0.00 0.00 0.00 39 1010.2
20260504222200 23 296 6.4 6.4 0.00 0.00 0.00 41 1010.1
20260504221657 23 277 8.0 12.9 0.00 0.00 0.00 39 1009.9
20260504221155 24 282 11.3 12.9 0.00 0.00 0.00 39 1010.0
20260504220651 24 257 6.4 6.4 0.00 0.00 0.00 39 1010.1
20260504220149 24 208 9.7 12.9 0.00 0.00 0.00 40 1009.9
20260504215645 24 305 9.7 12.9 0.00 0.00 0.00 39 1010.0
20260504215142 24 269 8.0 11.3 0.00 0.00 0.00 39 1010.0
20260504214638 24 281 11.3 12.9 0.00 0.00 0.00 40 1010.0
20260504214134 24 267 8.0 14.5 0.00 0.00 0.00 41 1009.9
20260504213631 24 292 8.0 9.7 0.00 0.00 0.00 41 1009.9
20260504213128 24 288 9.7 11.3 0.00 0.00 0.00 39 1010.0
20260504212624 24 267 8.0 9.7 0.00 0.00 0.00 38 1009.6
20260504212121 24 262 9.7 11.3 0.00 0.00 0.00 37 1009.8
20260504211619 24 270 9.7 12.9 0.00 0.00 0.00 34 1009.5
20260504211115 25 278 11.3 12.9 0.00 0.00 0.00 33 1009.8
20260504210613 25 318 6.4 6.4 0.00 0.00 0.00 35 1009.9
20260504210109 25 293 11.3 12.9 0.00 0.00 0.00 35 1009.9
20260504205607 24 264 4.8 4.8 0.00 0.00 0.00 37 1010.0
20260504205104 25 298 4.8 6.4 0.00 0.00 0.00 37 1009.9
20260504204602 24 319 6.4 6.4 0.00 0.00 0.00 35 1010.2
20260504204101 24 276 4.8 6.4 0.00 0.00 0.00 37 1009.9
20260504203559 24 255 6.4 9.7 0.00 0.00 0.00 36 1010.0
20260504203056 24 324 4.8 6.4 0.00 0.00 0.00 37 1010.2
20260504202551 24 229 11.3 12.9 0.00 0.00 0.00 37 1010.2
20260504202048 24 303 12.9 14.5 0.00 0.00 0.00 37 1010.2
20260504201545 25 287 3.2 4.8 0.00 0.00 0.00 38 1010.3
20260504201043 24 271 8.0 11.3 0.00 0.00 0.00 38 1010.2
20260504200539 24 308 8.0 12.9 0.00 0.00 0.00 38 1010.4
20260504200036 25 214 9.7 11.3 0.00 0.00 0.00 37 1010.4
20260504195532 25 322 3.2 3.2 0.00 0.00 0.00 34 1010.3
20260504195029 24 299 1.6 1.6 0.00 0.00 0.00 36 1010.5
20260504194525 24 271 6.4 9.7 0.00 0.00 0.00 40 1010.6
20260504194021 23 263 9.7 9.7 0.00 0.00 0.00 39 1010.7
20260504193518 23 228 9.7 12.9 0.00 0.00 0.00 37 1010.5
20260504193017 23 319 4.8 6.4 0.00 0.00 0.00 38 1010.8
20260504192514 23 277 9.7 12.9 0.00 0.00 0.00 38 1010.9
20260504192013 23 272 4.8 4.8 0.00 0.00 0.00 39 1010.9
20260504191510 24 215 12.9 16.1 0.00 0.00 0.00 39 1011.0
20260504191006 23 312 12.9 14.5 0.00 0.00 0.00 39 1011.1
20260504190502 24 314 0.0 0.0 0.00 0.00 0.00 37 1011.3
20260504185958 24 318 1.6 1.6 0.00 0.00 0.00 44 1011.2
20260504185455 23 306 1.6 1.6 0.00 0.00 0.00 41 1011.5
20260504184952 23 295 9.7 11.3 0.00 0.00 0.00 38 1011.2